Weather History for KDNV - October, 2012

Change the Weather History Date:

Thursday, October 4, 2012

  Actual Average (KLAF) Record (KLAF)
Temperature  
Mean Temperature 66 °F 58 °F  
Max Temperature 80 °F 70 °F 86 °F (1997)
Min Temperature 51 °F 47 °F 30 °F (1989)
Degree Days  
Heating Degree Days 0 8  
Month to date heating degree days 29  
Since 1 July heating degree days 114  
Cooling Degree Days 1 1  
Month to date cooling degree days 5  
Year to date cooling degree days 970  
Growing Degree Days 16 (Base 50)    
Moisture  
Dew Point 53 °F    
Average Humidity 69    
Maximum Humidity 94    
Minimum Humidity 36    
Precipitation  
Precipitation 0.00 in 0.10 in 1.61 in (1954)
Month to date precipitation 0.41  
Year to date precipitation 28.62  
Sea Level Pressure  
Sea Level Pressure 30.08 in    
Wind  
Wind Speed 9 mph (SW)    
Max Wind Speed 21 mph    
Max Gust Speed 31 mph    
Visibility 7 miles    
Events Rain    
T = Trace of Precipitation, MM = Missing Value Source: NWS Daily Summary

Daily Weather History Graph

Daily Weather History Graph

Search for Another Location

Airport or City:

Trip Planner

Search our weather history database for the weather conditions in past years. The results will help you decide how hot, cold, wet, or windy it might be!

Date:

Astronomy

Oct. 04, 2012 Rise Set
Actual Time 6:50 AM CDT 6:26 PM CDT
Civil Twilight 6:23 AM CDT 6:54 PM CDT
Nautical Twilight 5:51 AM CDT 7:25 PM CDT
Astronomical Twilight 5:19 AM CDT 7:57 PM CDT
Moon 9:02 PM CDT (10/4) 11:07 AM CDT (10/4)
Length of Visible Light 12h 30m
Length of Day
11h 36m
Waning Gibbous, 82% of the Moon is Illuminated
Oct 4
Waning Gibbous
Oct 8
Last Quarter
Oct 15
New
Oct 21
First Quarter
Oct 29
Full

Hourly Weather History & Observations

Time (CDT) Temp. Dew Point Humidity Pressure Visibility Wind Dir Wind Speed Gust Speed Precip Events Conditions
12:15 AM 57.2 °F 51.8 °F 82% 30.05 in 10.0 mi SSW 8.1 mph - N/A   Clear
12:35 AM 57.4 °F 52.3 °F 83% 30.06 in 7.0 mi SSW 10.4 mph - N/A   Scattered Clouds
12:55 AM 57.7 °F 52.9 °F 84% 30.06 in 10.0 mi SSW 9.2 mph - N/A   Scattered Clouds
1:15 AM 57.4 °F 53.1 °F 85% 30.06 in 10.0 mi SSW 8.1 mph - N/A   Clear
1:35 AM 56.7 °F 52.9 °F 87% 30.06 in 7.0 mi SW 5.8 mph - N/A   Clear
1:55 AM 56.1 °F 52.5 °F 88% 30.06 in 10.0 mi WSW 4.6 mph - N/A   Clear
2:15 AM 58.3 °F 53.2 °F 83% 30.07 in 10.0 mi West 6.9 mph - N/A   Clear
2:35 AM 57.2 °F 53.1 °F 86% 30.07 in 7.0 mi West 4.6 mph - N/A   Mostly Cloudy
2:55 AM 56.8 °F 53.2 °F 88% 30.08 in 7.0 mi WSW 4.6 mph - N/A   Overcast
3:15 AM 56.7 °F 53.2 °F 88% 30.08 in 10.0 mi SW 3.5 mph - N/A   Overcast
3:35 AM 57.2 °F 53.2 °F 87% 30.08 in 10.0 mi SSW 5.8 mph - N/A Rain Light Rain
3:55 AM 57.2 °F 53.6 °F 88% 30.08 in 10.0 mi South 6.9 mph - N/A Rain Light Rain
4:15 AM 56.8 °F 53.6 °F 89% 30.08 in 10.0 mi South 3.5 mph - N/A Rain Light Rain
4:35 AM 56.8 °F 53.8 °F 89% 30.08 in 10.0 mi SSE 4.6 mph - N/A Rain Light Rain
4:55 AM 56.8 °F 54.0 °F 90% 30.09 in 10.0 mi SW 4.6 mph - N/A Rain Light Rain
5:15 AM 56.7 °F 54.0 °F 91% 30.09 in 7.0 mi South 4.6 mph - N/A Rain Rain
5:35 AM 55.8 °F 53.1 °F 91% 30.09 in 10.0 mi South 4.6 mph - N/A Rain Rain
5:55 AM 54.7 °F 52.3 °F 92% 30.09 in 7.0 mi South 4.6 mph - N/A Rain Rain
6:15 AM 54.7 °F 52.2 °F 91% 30.09 in 7.0 mi Calm Calm - N/A Rain Light Rain
6:35 AM 54.5 °F 52.3 °F 92% 30.09 in 7.0 mi SSE 3.5 mph - N/A   Clear
6:55 AM 53.8 °F 51.8 °F 93% 30.09 in 5.0 mi South 3.5 mph - N/A   Clear
7:15 AM 53.8 °F 52.2 °F 94% 30.09 in 5.0 mi SSE 3.5 mph - N/A   Clear
7:35 AM 54.9 °F 53.1 °F 94% 30.10 in 5.0 mi South 3.5 mph - N/A   Clear
7:55 AM 56.8 °F 54.3 °F 91% 30.10 in 7.0 mi SSW 5.8 mph - N/A   Clear
8:15 AM 58.3 °F 54.7 °F 88% 30.11 in 7.0 mi SSW 6.9 mph - N/A   Clear
8:35 AM 59.5 °F 55.0 °F 85% 30.11 in 7.0 mi SSW 8.1 mph - N/A   Clear
8:55 AM 61.2 °F 55.9 °F 83% 30.11 in 7.0 mi SSW 6.9 mph - N/A   Clear
9:15 AM 62.8 °F 56.3 °F 79% 30.11 in 7.0 mi SSW 9.2 mph - N/A   Clear
9:35 AM 64.4 °F 56.7 °F 76% 30.11 in 7.0 mi SW 9.2 mph - N/A   Clear
9:55 AM 66.2 °F 56.8 °F 72% 30.11 in 7.0 mi SW 11.5 mph - N/A   Clear
10:15 AM 67.8 °F 56.8 °F 68% 30.10 in 7.0 mi SSW 10.4 mph 16.1 mph N/A   Clear
10:35 AM 69.1 °F 57.2 °F 66% 30.10 in 7.0 mi South 11.5 mph - N/A   Clear
10:55 AM 70.7 °F 57.0 °F 62% 30.10 in 7.0 mi SW 9.2 mph - N/A   Clear
11:15 AM 72.0 °F 56.7 °F 58% 30.09 in 7.0 mi SW 11.5 mph - N/A   Clear
11:35 AM 73.4 °F 56.3 °F 55% 30.08 in 5.0 mi SSW 11.5 mph 17.3 mph N/A   Haze
11:55 AM 75.0 °F 55.9 °F 51% 30.08 in 5.0 mi SW 15.0 mph - N/A   Haze
12:15 PM 76.5 °F 55.8 °F 49% 30.07 in 7.0 mi SW 12.7 mph - N/A   Clear
12:35 PM 77.4 °F 54.5 °F 45% 30.07 in 7.0 mi SW 16.1 mph 21.9 mph N/A   Clear
12:55 PM 78.6 °F 54.1 °F 43% 30.06 in 7.0 mi SW 16.1 mph 21.9 mph N/A   Clear
1:15 PM 79.0 °F 53.6 °F 41% 30.05 in 7.0 mi SW 17.3 mph 21.9 mph N/A   Clear
1:35 PM 78.8 °F 51.8 °F 39% 30.05 in 7.0 mi SW 18.4 mph 24.2 mph N/A   Clear
1:55 PM 79.9 °F 51.4 °F 37% 30.05 in 7.0 mi SW 18.4 mph 25.3 mph N/A   Scattered Clouds
2:15 PM 79.9 °F 50.5 °F 36% 30.05 in 7.0 mi WSW 19.6 mph 27.6 mph N/A   Scattered Clouds
2:35 PM 79.9 °F 50.7 °F 36% 30.05 in 5.0 mi WSW 19.6 mph 28.8 mph N/A   Haze
2:55 PM 79.9 °F 51.4 °F 37% 30.05 in 5.0 mi SW 18.4 mph 25.3 mph N/A   Haze
3:15 PM 80.1 °F 51.6 °F 37% 30.04 in 7.0 mi SW 17.3 mph 27.6 mph N/A   Clear
3:35 PM 79.7 °F 52.7 °F 39% 30.04 in 5.0 mi SW 16.1 mph 26.5 mph N/A   Haze
3:55 PM 79.5 °F 52.0 °F 38% 30.03 in 5.0 mi SW 20.7 mph 24.2 mph N/A   Haze
4:15 PM 79.2 °F 52.7 °F 40% 30.03 in 5.0 mi SW 18.4 mph 21.9 mph N/A   Haze
4:35 PM 78.8 °F 52.7 °F 40% 30.03 in 7.0 mi SW 16.1 mph 24.2 mph N/A   Clear
4:55 PM 78.3 °F 52.9 °F 41% 30.03 in 5.0 mi SW 11.5 mph 19.6 mph N/A   Haze
5:15 PM 77.0 °F 53.6 °F 44% 30.03 in 7.0 mi SW 17.3 mph 23.0 mph N/A   Clear
5:35 PM 75.7 °F 53.6 °F 46% 30.04 in 5.0 mi SW 13.8 mph 20.7 mph N/A   Haze
5:55 PM 75.4 °F 53.4 °F 46% 30.04 in 5.0 mi SSW 15.0 mph 21.9 mph N/A   Haze
6:15 PM 74.1 °F 54.0 °F 49% 30.04 in 5.0 mi SSW 10.4 mph - N/A   Haze
6:35 PM 73.9 °F 54.1 °F 50% 30.04 in 7.0 mi SSW 12.7 mph - N/A   Mostly Cloudy
6:55 PM 71.8 °F 54.0 °F 53% 30.07 in 7.0 mi NW 16.1 mph 31.1 mph N/A   Mostly Cloudy
7:15 PM 65.8 °F 53.1 °F 63% 30.07 in 7.0 mi NW 8.1 mph - N/A Rain Rain
7:35 PM 64.4 °F 52.9 °F 66% 30.08 in 7.0 mi NNW 5.8 mph - N/A Rain Rain
7:55 PM 62.6 °F 51.8 °F 68% 30.08 in 7.0 mi NNW 8.1 mph - N/A Rain Rain
8:15 PM 61.7 °F 50.4 °F 66% 30.08 in 7.0 mi NW 3.5 mph - N/A Rain Rain
8:35 PM 61.7 °F 51.1 °F 68% 30.10 in 7.0 mi WNW 3.5 mph - N/A Rain Rain
8:55 PM 61.7 °F 50.9 °F 68% 30.10 in 7.0 mi WNW 8.1 mph - N/A Rain Rain
9:15 PM 59.9 °F 48.6 °F 66% 30.10 in 7.0 mi NW 16.1 mph 20.7 mph N/A Rain Rain
9:35 PM 56.8 °F 49.1 °F 75% 30.11 in 7.0 mi NW 8.1 mph - N/A Rain Rain
9:55 PM 56.1 °F 49.1 °F 77% 30.13 in 10.0 mi NW 9.2 mph 17.3 mph N/A Rain Rain
10:15 PM 55.4 °F 49.1 °F 79% 30.14 in 10.0 mi NW 11.5 mph - N/A Rain Rain
10:35 PM 54.9 °F 49.1 °F 81% 30.15 in 10.0 mi WNW 8.1 mph - N/A Rain Rain
10:55 PM 53.8 °F 49.5 °F 85% 30.14 in 10.0 mi WNW 10.4 mph - N/A Rain Rain
11:15 PM 52.7 °F 49.6 °F 89% 30.14 in 10.0 mi WNW 6.9 mph - N/A Rain Light Rain
11:35 PM 52.3 °F 49.6 °F 91% 30.14 in 10.0 mi West 5.8 mph - N/A Rain Light Rain
11:55 PM 51.4 °F 49.1 °F 92% 30.13 in 7.0 mi WNW 3.5 mph - N/A Rain Rain